Wind_Speed
42 40 41 43 43 46 46 43 40 42 47 46 39 37 41 46 40 35 34 39 41 40 47 47 45 45 49 51 47 47 48 49 43 41 40 38 37 35 36 35 36 39 39 40 44 47 49 51 52
43 40 37 36 36 42 48 47 41 42 44 44 42 42 44 45 47 44 41 45 42 46 48 47 47 50 51 49 45 47 46 48 44 40 40 38 36 37 36 33 35 36 39 40 44 50 53 55 55
43 45 40 41 48 53 51 45 41 46 43 42 45 47 45 49 47 44 44 48 45 47 43 45 47 51 49 47 47 48 47 49 45 41 41 39 37 36 34 36 36 36 39 41 42 45 47 50 50
42 44 46 49 50 53 51 57 48 55 46 42 43 48 52 52 52 51 47 46 43 41 44 47 47 47 50 49 49 50 47 47 45 41 40 39 37 34 34 35 34 36 37 37 39 39 40 39 40
44 46 48 50 53 56 54 50 46 52 52 45 47 49 57 59 59 56 52 48 49 51 50 47 48 52 52 50 50 51 48 48 46 40 39 37 35 34 35 35 34 32 34 36 35 35 38 39 39
49 49 50 53 54 57 60 55 56 54 57 54 48 49 56 60 60 59 55 50 50 50 50 50 51 52 52 52 51 52 49 47 45 38 37 35 33 31 33 31 27 27 31 32 33 33 33 34 35
54 54 55 54 59 57 61 60 56 54 61 64 51 48 59 61 60 56 54 52 51 51 51 50 53 53 53 53 52 52 49 46 42 39 36 35 34 33 33 30 28 25 24 27 30 32 32 33 33
54 59 57 59 62 61 65 64 63 59 55 64 58 52 55 62 57 57 49 49 49 52 51 51 51 51 51 53 52 51 49 44 44 39 35 34 34 33 33 32 30 26 26 23 25 26 26 30 30
64 62 59 64 67 65 68 66 63 63 60 62 60 60 54 62 60 60 59 55 53 51 49 49 48 48 49 51 52 51 48 48 44 38 36 34 33 32 34 33 32 31 29 28 29 31 31 30 31
71 65 60 67 66 68 67 64 59 57 60 62 57 53 57 64 61 59 58 56 56 51 46 48 49 48 49 50 53 50 47 46 45 41 39 35 33 33 34 36 36 35 33 34 35 34 35 38 39
75 65 66 65 72 71 63 58 63 63 60 62 58 57 61 62 60 59 59 55 49 45 42 46 41 44 43 47 52 51 46 47 46 42 41 39 39 36 35 38 40 37 36 40 40 40 39 40 42
68 70 72 71 75 70 67 64 57 63 67 72 69 64 55 59 63 61 58 49 47 46 46 45 47 45 46 42 49 51 47 46 46 40 41 44 45 42 41 42 43 43 41 41 44 46 46 47 45
71 74 75 78 78 74 73 73 75 74 71 73 73 61 55 52 58 61 56 52 48 45 50 50 50 47 51 46 47 51 53 49 46 40 42 42 43 44 48 48 45 46 44 42 43 46 48 46 46
71 71 67 66 67 65 67 66 68 64 65 66 71 63 54 56 53 58 55 49 51 51 55 55 53 53 53 53 50 50 54 55 49 43 44 44 47 52 55 53 50 47 48 44 44 49 50 53 55
71 71 66 67 71 70 76 62 61 63 64 63 70 61 57 48 48 55 54 49 46 53 59 60 58 59 60 63 55 50 55 56 52 47 44 46 48 51 53 53 53 53 52 49 51 54 56 58 61
74 75 74 76 79 76 78 57 61 61 60 60 62 59 52 49 50 55 55 53 56 63 67 71 70 67 65 61 56 49 55 54 52 50 49 47 50 49 49 53 56 55 49 49 49 55 60 64 65
77 79 77 74 83 81 81 64 65 63 63 60 59 59 52 55 53 58 65 65 65 71 75 70 70 70 69 56 51 49 54 55 53 53 50 48 48 52 52 52 52 51 49 52 58 61 63 64 67
77 77 76 75 85 89 82 73 70 70 65 64 65 68 62 56 56 62 76 74 73 77 78 78 72 59 52 50 50 52 54 55 55 55 54 50 50 50 51 53 51 51 52 57 60 62 63 69 76
79 79 77 80 85 90 85 83 77 76 75 72 70 74 78 71 65 67 81 84 84 76 81 69 64 61 56 59 55 55 55 55 57 58 56 54 54 55 56 55 54 56 56 59 64 67 73 77 81
88 87 83 84 89 96 88 84 79 79 78 79 79 79 81 82 77 78 85 87 79 76 69 67 65 61 56 59 56 52 56 57 57 58 59 57 60 61 62 64 64 64 62 65 70 76 79 79 81
93 93 91 91 93 96 97 91 86 84 83 83 84 86 88 90 88 87 90 80 74 68 64 62 60 54 58 57 53 54 58 57 56 57 57 58 59 60 62 63 63 64 68 72 76 78 78 81 86
105 102 102 99 104 102 99 98 87 87 87 87 87 91 93 97 100 92 84 71 65 65 62 58 58 57 59 57 57 59 58 57 58 59 58 59 61 62 63 64 66 70 73 74 76 80 85 88 90
111 111 113 105 105 107 98 109 90 86 88 88 93 95 95 92 88 87 79 65 58 58 58 54 55 58 55 54 56 58 57 58 62 61 62 64 64 66 67 69 71 75 76 77 81 86 90 93 94
112 114 112 111 108 111 95 110 101 89 83 84 86 91 89 85 85 79 68 61 59 61 58 54 58 58 56 57 58 55 57 60 63 64 66 66 67 68 70 72 77 76 78 81 86 90 96 96 100
113 112 109 110 110 109 102 115 103 88 87 86 84 86 88 84 83 80 75 71 61 57 56 53 56 60 58 55 55 53 57 61 63 65 66 67 69 68 69 72 78 81 82 86 91 94 98 102 105
120 116 119 113 112 109 108 110 100 99 93 83 85 95 94 88 83 82 78 75 71 66 57 58 59 60 59 61 60 59 60 62 62 63 63 63 66 71 75 76 80 84 87 91 94 97 101 108 112
113 122 110 119 114 112 107 102 99 95 92 90 86 83 80 78 79 78 78 78 77 74 64 58 63 65 64 61 63 60 63 64 63 62 65 69 70 73 77 81 85 88 91 96 99 103 108 111 109
119 116 118 118 116 112 109 101 99 93 93 92 88 86 82 82 70 71 72 74 71 63 55 61 63 66 66 62 61 63 63 62 65 66 66 69 72 76 82 86 89 95 98 102 105 108 109 107 110
128 122 119 115 115 108 108 98 97 93 93 81 82 77 80 80 75 67 68 71 69 61 62 69 61 65 68 69 69 67 67 68 69 70 72 78 81 87 90 93 95 99 103 105 105 104 108 110 110
126 121 116 117 101 87 86 90 83 67 74 67 74 84 82 71 69 65 65 70 68 62 58 67 60 66 71 74 76 78 78 78 79 79 81 84 88 93 94 95 100 101 101 100 103 107 110 112 109
Wind_Direction
294 292 291 293 293 294 294 299 304 304 304 308 312 315 312 313 314 312 304 299 296 306 311 305 302 305 310 311 312 309 310 313 312 307 301 298 296 295 295 291 285 281 278 271 262 258 262 264 268
293 297 297 294 294 293 297 297 304 306 302 309 312 313 308 308 308 306 304 301 293 306 308 303 301 301 307 311 311 309 310 314 311 304 297 294 292 293 295 295 287 278 275 271 264 259 260 263 265
294 303 299 297 293 297 295 297 299 303 301 305 310 311 304 303 302 304 306 303 298 306 306 306 303 303 306 309 309 310 308 313 310 305 298 291 291 295 294 294 290 282 275 271 269 266 266 265 266
292 300 302 298 296 294 291 296 305 304 303 300 304 301 300 298 300 301 297 302 304 304 305 306 305 305 307 307 306 309 309 310 311 306 298 294 294 291 300 302 293 282 274 272 270 270 270 270 267
296 302 302 295 292 293 292 288 298 294 300 298 305 308 303 302 304 306 306 302 298 300 302 304 301 305 304 304 304 307 310 306 311 306 301 291 294 295 298 302 297 279 273 271 272 270 269 270 272
293 299 298 293 289 290 291 290 303 292 296 294 300 307 302 300 304 306 302 300 300 302 305 305 303 301 301 301 302 304 310 303 310 304 300 292 298 297 303 307 300 280 271 270 269 271 269 269 269
288 294 297 290 284 288 287 290 295 290 290 291 298 297 300 300 303 303 299 298 299 301 303 305 304 302 299 299 300 303 306 303 308 305 301 294 293 294 302 303 305 293 280 281 278 276 277 277 276
290 295 289 282 283 285 285 290 294 293 288 288 291 293 296 300 300 303 304 299 299 301 301 303 304 302 301 298 298 302 304 301 305 303 299 294 292 296 298 298 295 299 289 293 289 293 291 291 285
286 296 289 285 286 284 284 287 286 288 290 288 291 294 297 298 302 299 300 300 300 300 300 302 303 305 302 301 299 302 302 301 303 300 297 294 295 295 293 293 294 291 294 290 294 293 290 287 285
287 290 287 284 281 282 282 285 285 287 286 287 288 290 296 300 299 299 298 299 301 299 300 301 303 304 300 301 299 301 301 300 301 300 294 292 291 292 294 290 294 292 288 288 290 289 288 285 283
287 287 281 283 286 284 281 279 280 282 285 283 283 289 300 301 299 297 299 299 297 298 301 304 306 310 310 302 300 301 300 299 298 296 293 290 287 289 289 290 288 286 288 289 286 285 291 289 286
280 276 278 281 280 272 275 276 279 281 285 282 285 291 297 296 295 295 297 294 292 299 299 299 305 307 310 304 299 296 296 294 295 291 293 292 286 286 289 288 284 282 281 283 284 286 291 294 291
281 277 277 277 275 274 278 281 279 283 285 286 288 290 295 295 290 290 291 290 292 296 299 301 304 307 308 303 299 294 291 291 291 286 289 294 292 287 286 284 280 277 275 281 287 287 289 287 289
274 278 277 279 276 276 275 278 281 283 281 286 288 291 294 294 290 286 286 290 297 301 299 301 303 303 303 302 307 290 289 290 292 287 286 287 287 286 285 282 280 276 276 277 285 285 290 288 290
273 272 276 279 277 282 282 284 285 279 282 284 288 292 291 291 290 286 285 285 297 301 298 298 299 299 299 301 303 290 286 286 288 288 286 283 291 291 284 283 281 281 277 276 280 282 285 286 287
280 281 278 284 284 285 284 287 287 287 286 287 285 287 286 289 291 283 280 286 296 303 302 301 296 297 298 299 300 290 285 283 284 284 286 284 283 285 285 284 282 282 283 286 282 276 278 283 285
285 281 284 284 285 284 284 282 279 282 287 283 282 286 287 285 286 285 286 288 295 299 301 307 305 298 294 295 292 286 283 282 282 284 284 284 283 283 285 285 285 281 281 280 283 284 283 282 282
280 282 283 286 287 285 284 284 282 282 282 284 285 284 283 281 283 287 291 292 295 297 298 301 304 292 284 286 283 281 279 279 282 282 282 283 281 279 279 281 281 282 282 282 282 281 280 282 289
288 282 282 285 285 284 285 283 282 282 284 284 285 288 290 284 285 291 297 299 299 295 297 298 299 295 280 280 280 280 277 277 279 281 282 282 282 282 282 281 280 280 277 275 277 280 283 288 292
284 287 285 282 283 282 284 284 284 283 281 282 284 284 285 288 287 294 300 301 295 290 290 294 295 289 278 278 282 281 275 274 277 279 281 282 283 282 282 282 279 280 281 281 282 284 287 290 293
277 285 283 278 279 282 285 286 285 284 282 280 281 284 287 288 288 293 297 297 285 285 287 291 294 283 277 280 280 276 275 276 277 278 280 281 282 283 282 282 283 281 282 283 285 288 289 291 293
278 281 279 277 279 280 282 282 281 284 284 286 285 284 283 286 288 290 297 287 282 282 287 290 293 281 276 277 273 272 275 274 277 278 281 281 283 282 282 282 282 282 284 287 288 289 290 292 291
277 278 280 281 278 278 278 282 281 282 283 281 281 283 285 284 286 293 296 281 282 280 286 291 286 279 275 276 272 273 275 273 274 276 278 280 281 282 282 282 283 283 286 287 287 290 290 291 291
278 278 280 278 279 278 280 280 276 278 281 281 282 282 282 284 285 288 284 280 278 282 287 284 278 277 276 273 270 271 272 272 273 275 276 278 280 282 282 281 283 284 285 285 287 290 291 290 291
277 275 275 277 280 278 278 276 278 282 280 275 274 275 279 281 282 284 283 280 279 279 283 284 274 275 274 275 272 271 272 272 273 275 278 280 279 278 277 279 282 284 287 287 288 289 289 292 294
276 278 278 280 278 276 274 278 280 277 278 276 276 280 281 277 274 283 280 279 279 279 278 278 265 266 274 274 273 272 274 276 277 277 277 274 276 277 282 284 282 284 285 285 288 290 292 296 299
276 275 281 279 279 279 278 278 276 277 278 280 279 276 278 276 279 281 279 277 280 280 278 272 263 259 264 270 273 272 272 273 274 276 276 279 278 277 278 279 282 284 286 287 290 295 297 301 302
275 275 276 279 280 281 281 281 278 280 281 279 275 278 280 276 275 276 274 273 275 277 274 269 262 259 261 262 265 267 269 270 273 276 279 278 277 278 279 282 285 288 291 293 296 299 301 303 304
275 273 273 276 277 280 279 279 278 280 276 274 275 277 279 280 280 274 273 272 271 266 256 269 265 260 262 263 263 265 266 267 269 271 271 274 277 281 282 286 288 289 292 296 299 300 302 303 305
269 270 270 271 277 273 277 285 283 266 265 265 267 279 282 278 275 278 277 277 271 266 255 262 264 262 263 265 266 266 268 271 273 275 276 278 279 281 286 287 288 292 296 297 298 300 302 305 305
Height
10879 10880 10880 10878 10876 10871 10870 10870 10874 10872 10864 10863 10866 10863 10856 10850 10856 10857 10856 10854 10849 10846 10843 10839 10835 10832 10829 10825 10821 10817 10814 10810 10806 10803 10800 10797 10795 10793 10791 10789 10789 10789 10788 10789 10789 10789 10790 10790 10790
10872 10873 10873 10872 10870 10865 10862 10865 10866 10865 10862 10858 10859 10859 10852 10848 10845 10848 10846 10845 10843 10840 10837 10832 10829 10825 10822 10818 10815 10811 10808 10804 10801 10797 10794 10791 10789 10786 10784 10782 10781 10780 10779 10779 10779 10779 10779 10780 10781
10865 10866 10867 10866 10861 10858 10853 10858 10861 10856 10855 10854 10850 10851 10849 10842 10841 10840 10838 10834 10833 10832 10828 10825 10821 10818 10815 10812 10808 10805 10803 10799 10795 10792 10788 10786 10783 10781 10779 10776 10773 10771 10770 10770 10770 10771 10770 10770 10769
10858 10861 10861 10858 10853 10848 10850 10843 10851 10842 10847 10846 10849 10844 10841 10835 10838 10835 10833 10828 10825 10823 10820 10818 10814 10810 10807 10805 10801 10798 10795 10792 10789 10785 10783 10779 10777 10775 10773 10769 10766 10764 10763 10762 10762 10761 10761 10761 10760
10849 10854 10853 10852 10847 10841 10842 10842 10845 10838 10832 10841 10843 10841 10832 10826 10829 10827 10823 10822 10819 10817 10813 10810 10806 10803 10800 10798 10794 10790 10788 10785 10783 10779 10776 10774 10771 10769 10766 10763 10759 10756 10755 10755 10755 10754 10754 10753 10753
10839 10845 10846 10843 10839 10834 10830 10833 10838 10833 10818 10828 10835 10834 10826 10818 10822 10820 10815 10813 10811 10808 10805 10802 10799 10795 10792 10789 10786 10782 10781 10778 10775 10773 10770 10768 10765 10762 10759 10756 10753 10750 10749 10749 10748 10747 10746 10745 10744
10831 10835 10838 10834 10828 10827 10819 10820 10830 10827 10817 10813 10826 10828 10817 10813 10814 10811 10808 10804 10803 10800 10798 10795 10791 10787 10784 10781 10778 10775 10773 10770 10768 10766 10764 10761 10759 10756 10753 10751 10749 10746 10745 10744 10743 10742 10740 10739 10738
10822 10826 10828 10821 10819 10821 10811 10812 10812 10813 10814 10803 10808 10816 10814 10804 10805 10802 10800 10795 10794 10793 10790 10787 10783 10779 10776 10772 10769 10766 10764 10763 10761 10758 10756 10754 10752 10750 10748 10746 10744 10741 10740 10739 10738 10737 10736 10733 10732
10809 10817 10818 10809 10807 10809 10802 10805 10801 10801 10800 10798 10797 10799 10802 10795 10794 10793 10791 10788 10784 10783 10780 10777 10774 10772 10768 10763 10760 10757 10755 10754 10752 10750 10748 10747 10745 10744 10741 10740 10737 10736 10735 10734 10732 10731 10729 10727 10726
10799 10805 10807 10799 10796 10797 10794 10793 10789 10790 10787 10786 10788 10788 10787 10784 10783 10781 10781 10779 10776 10772 10771 10767 10766 10763 10758 10754 10751 10748 10746 10744 10743 10742 10739 10739 10737 10735 10734 10732 10731 10729 10728 10727 10725 10723 10722 10720 10718
10786 10794 10791 10790 10786 10782 10784 10783 10776 10776 10777 10770 10776 10779 10779 10772 10768 10770 10770 10770 10766 10763 10761 10757 10756 10754 10750 10746 10742 10739 10737 10735 10734 10732 10730 10729 10728 10726 10725 10724 10723 10721 10720 10718 10716 10714 10713 10710 10708
10779 10775 10777 10781 10776 10770 10768 10770 10775 10763 10762 10755 10767 10771 10773 10767 10757 10757 10758 10759 10757 10755 10750 10748 10746 10745 10742 10738 10734 10730 10727 10725 10724 10722 10720 10719 10718 10717 10715 10714 10713 10712 10710 10708 10705 10703 10701 10698 10696
10763 10763 10762 10763 10762 10756 10755 10759 10761 10761 10750 10741 10744 10761 10760 10760 10755 10744 10747 10745 10746 10744 10739 10738 10734 10735 10732 10730 10726 10722 10716 10715 10714 10713 10710 10710 10708 10707 10705 10704 10703 10701 10699 10698 10696 10693 10689 10685 10683
10749 10752 10753 10748 10743 10743 10744 10750 10748 10743 10737 10735 10725 10743 10746 10743 10741 10733 10735 10735 10734 10733 10727 10726 10725 10723 10720 10717 10716 10712 10707 10703 10703 10701 10700 10699 10697 10696 10694 10692 10691 10690 10689 10687 10684 10681 10677 10673 10671
10737 10740 10740 10731 10727 10732 10724 10747 10731 10727 10726 10727 10716 10728 10732 10730 10728 10719 10721 10724 10724 10721 10716 10713 10714 10710 10707 10704 10703 10700 10696 10693 10691 10689 10688 10688 10686 10684 10683 10682 10680 10678 10677 10676 10673 10669 10666 10661 10658
10721 10720 10725 10716 10712 10714 10706 10740 10719 10714 10715 10716 10710 10711 10718 10719 10715 10706 10708 10711 10713 10706 10701 10700 10699 10697 10694 10692 10689 10689 10684 10682 10679 10678 10677 10676 10675 10672 10670 10670 10668 10666 10665 10664 10662 10658 10653 10648 10644
10699 10705 10706 10712 10691 10693 10689 10720 10710 10706 10702 10704 10699 10695 10704 10707 10706 10694 10690 10698 10702 10693 10686 10685 10682 10681 10679 10677 10675 10676 10672 10669 10667 10666 10664 10664 10663 10660 10658 10657 10655 10653 10651 10651 10649 10646 10640 10635 10630
10682 10684 10691 10697 10679 10668 10680 10696 10696 10695 10694 10692 10689 10679 10688 10694 10696 10688 10673 10682 10687 10680 10671 10670 10667 10667 10665 10662 10660 10660 10659 10656 10653 10653 10652 10651 10649 10646 10645 10643 10642 10640 10638 10637 10634 10631 10627 10621 10617
10667 10666 10675 10677 10666 10649 10666 10671 10681 10680 10678 10678 10673 10666 10656 10670 10680 10682 10666 10666 10671 10665 10658 10653 10651 10652 10651 10647 10647 10646 10645 10642 10641 10639 10638 10637 10636 10635 10631 10629 10628 10627 10624 10621 10620 10616 10613 10607 10601
10649 10648 10656 10655 10646 10630 10650 10657 10669 10662 10662 10657 10654 10652 10645 10640 10654 10658 10654 10644 10647 10647 10643 10639 10637 10636 10635 10635 10634 10633 10630 10629 10628 10626 10624 10624 10622 10621 10617 10614 10613 10611 10609 10606 10604 10598 10596 10592 10584
10623 10630 10628 10631 10626 10623 10623 10638 10645 10641 10642 10639 10638 10633 10625 10620 10629 10639 10638 10636 10625 10627 10626 10621 10618 10618 10619 10620 10621 10618 10617 10616 10615 10612 10611 10610 10608 10605 10603 10600 10599 10595 10594 10590 10585 10579 10576 10573 10569
10600 10606 10598 10607 10600 10608 10604 10605 10633 10624 10623 10615 10614 10609 10610 10606 10602 10617 10620 10620 10614 10607 10610 10608 10602 10601 10603 10605 10605 10602 10604 10602 10599 10598 10597 10595 10594 10591 10587 10584 10581 10577 10576 10573 10566 10561 10556 10552 10546
10585 10580 10575 10582 10577 10574 10603 10564 10618 10607 10607 10600 10594 10589 10589 10587 10583 10594 10604 10599 10599 10593 10593 10592 10586 10583 10588 10590 10588 10588 10589 10587 10584 10585 10583 10580 10577 10574 10570 10565 10562 10559 10558 10555 10549 10544 10536 10531 10524
10558 10553 10551 10551 10555 10548 10595 10546 10567 10593 10587 10580 10574 10569 10566 10567 10567 10577 10585 10584 10585 10580 10576 10575 10572 10568 10572 10573 10572 10575 10573 10571 10570 10569 10567 10564 10561 10558 10552 10547 10544 10542 10541 10535 10529 10524 10514 10507 10501
10533 10524 10524 10526 10533 10530 10552 10516 10549 10575 10554 10548 10552 10549 10551 10553 10545 10551 10563 10565 10567 10565 10561 10559 10557 10554 10557 10558 10558 10560 10558 10555 10556 10553 10550 10549 10546 10542 10534 10531 10526 10523 10521 10515 10508 10503 10495 10486 10477
10501 10506 10497 10507 10500 10507 10515 10509 10538 10527 10524 10520 10523 10533 10537 10538 10530 10535 10542 10544 10547 10546 10545 10542 10542 10540 10540 10542 10543 10544 10541 10540 10540 10538 10537 10533 10530 10525 10519 10514 10508 10505 10501 10494 10488 10483 10474 10464 10453
10500 10467 10492 10460 10474 10469 10492 10502 10497 10497 10495 10497 10501 10508 10516 10521 10516 10517 10519 10523 10525 10524 10525 10524 10523 10523 10525 10529 10527 10529 10526 10526 10524 10524 10522 10520 10512 10506 10501 10495 10490 10486 10480 10473 10468 10462 10452 10441 10430
10457 10464 10454 10450 10446 10449 10458 10471 10470 10477 10475 10468 10477 10483 10489 10495 10501 10500 10500 10504 10508 10508 10505 10505 10506 10505 10507 10511 10511 10513 10511 10509 10509 10508 10507 10502 10496 10490 10482 10477 10473 10466 10460 10453 10447 10439 10428 10419 10409
10420 10432 10432 10432 10426 10431 10432 10442 10448 10451 10451 10447 10453 10463 10463 10467 10472 10475 10480 10483 10488 10488 10489 10486 10488 10488 10488 10490 10492 10494 10494 10494 10493 10493 10490 10484 10479 10469 10465 10461 10454 10448 10442 10435 10426 10418 10408 10399 10389
10393 10399 10409 10404 10419 10412 10414 10413 10418 10421 10425 10429 10430 10440 10445 10445 10449 10452 10456 10459 10464 10467 10469 10469 10470 10469 10469 10470 10473 10472 10472 10475 10475 10474 10470 10465 10456 10450 10448 10440 10434 10428 10423 10416 10408 10399 10390 10380 10369